Theta_e
344 343 339 343 341 340 342 340 337 340 338 342 343 343 338 337 336 335 339 343 339 339 339 337 334 329 328 330 338 337 337 336 337 337 338 338 337 338 337 335 333 334 335
342 343 339 342 344 344 344 341 343 341 342 342 340 341 342 342 342 339 343 341 339 338 337 335 331 329 331 332 331 332 338 336 337 338 337 338 338 337 336 338 337 336 332
341 343 346 345 343 344 344 342 343 340 337 339 341 343 342 340 339 344 342 343 337 335 334 334 334 334 330 330 327 325 328 331 334 339 339 335 335 337 337 336 337 337 336
345 345 342 345 346 344 343 341 343 342 341 341 340 343 343 342 341 342 340 340 343 337 335 339 339 340 336 331 325 323 333 334 331 327 329 338 341 339 333 337 336 337 336
345 345 345 346 345 343 343 343 345 344 343 343 342 342 342 341 341 339 342 340 338 338 337 343 342 341 340 335 328 322 330 333 339 339 338 328 330 338 335 335 336 336 337
342 343 343 345 345 345 346 345 343 341 344 344 341 341 343 342 341 339 339 333 337 340 340 342 341 343 339 338 332 324 335 339 340 339 341 341 328 333 338 334 335 336 336
341 337 339 342 344 344 344 344 342 339 342 341 341 340 337 339 343 343 343 338 342 342 342 345 343 341 341 340 335 325 337 339 340 340 340 340 332 330 338 337 335 333 333
345 344 342 339 338 345 345 346 344 343 341 342 342 336 335 337 342 343 343 341 344 343 344 344 343 340 340 341 337 330 330 339 338 339 339 340 333 330 339 339 338 336 335
343 345 342 346 343 344 345 345 345 343 339 341 340 343 341 334 343 343 342 343 344 344 343 340 340 340 341 344 341 336 326 336 340 339 340 340 339 336 334 335 334 332 336
345 343 348 347 341 343 341 344 343 347 343 342 343 341 344 342 338 344 343 343 342 343 342 341 341 341 343 341 341 336 330 330 340 340 341 341 335 335 335 337 335 332 334
347 344 348 348 343 341 343 339 345 342 344 345 346 346 344 340 342 343 344 344 344 343 343 341 341 341 341 342 342 337 335 328 339 340 341 340 336 336 338 337 334 337 337
346 345 344 346 342 339 340 346 342 342 346 344 344 348 346 343 343 344 344 345 343 344 344 344 342 342 340 344 343 340 336 334 333 340 339 340 341 340 338 340 338 337 337
345 345 347 344 340 339 341 346 343 342 343 342 339 344 347 345 345 343 344 344 345 344 343 344 344 345 343 342 344 342 338 336 331 338 340 339 339 341 340 340 339 338 338
345 344 345 345 344 342 341 343 344 343 342 347 346 340 342 344 345 347 346 346 345 344 344 344 344 344 345 344 344 343 339 337 336 330 337 340 339 340 339 339 339 340 340
345 344 345 347 346 345 344 340 343 345 349 346 346 342 343 342 346 345 345 345 345 343 343 345 345 344 344 345 345 344 342 338 336 336 334 328 340 340 340 340 340 340 340
344 342 345 346 344 346 342 346 349 349 346 343 346 342 347 345 344 345 346 345 346 346 345 345 344 345 345 345 345 344 343 343 339 336 336 337 330 329 339 341 340 340 340
343 344 345 344 343 347 346 344 347 346 347 343 346 344 346 345 345 345 346 346 346 346 345 345 344 344 344 345 344 343 344 344 341 339 339 338 338 338 332 326 331 337 340
339 344 342 342 343 344 344 346 348 350 344 343 345 345 343 346 345 346 346 345 347 346 345 344 343 342 345 343 342 341 342 343 343 341 340 340 339 339 339 339 337 330 325
338 345 345 341 345 336 344 342 347 346 345 343 346 343 345 347 347 345 346 346 345 344 344 346 343 343 346 344 341 340 340 341 341 342 341 341 341 341 340 339 340 340 340
340 343 346 346 346 346 345 345 347 346 344 346 345 342 346 346 344 344 346 346 346 346 344 347 344 343 343 344 342 341 340 340 340 338 341 341 340 341 340 339 339 340 341
342 342 344 345 344 345 345 343 343 343 345 346 346 345 346 345 346 346 346 345 346 345 345 344 345 345 344 344 343 341 340 340 339 340 341 340 339 338 338 338 335 333 332
344 345 344 344 349 348 344 344 345 344 345 345 346 346 345 344 344 344 342 342 343 343 344 343 345 344 344 344 342 341 341 340 339 338 339 339 338 337 335 335 334 333 334
344 344 344 344 346 347 347 344 346 346 345 347 346 345 343 342 339 338 341 343 343 344 343 343 342 342 341 341 342 342 342 341 341 341 339 337 336 334 332 329 331 331 330
335 341 344 347 347 348 347 345 345 346 345 347 347 346 346 346 344 339 342 344 343 343 344 343 343 342 341 340 341 342 342 342 342 341 337 332 332 331 332 329 327 327 326
340 336 341 344 345 344 346 345 344 344 343 344 344 345 346 346 340 341 342 344 344 343 343 341 339 339 339 339 339 341 342 341 341 339 335 330 332 330 328 327 326 323 323
346 342 340 342 345 344 344 343 344 344 345 345 345 345 346 343 341 342 342 343 342 341 340 339 339 339 339 339 339 339 340 340 340 336 334 331 332 329 327 325 323 321 319
Wind_Speed
2 3 4 5 5 7 10 8 7 4 5 3 7 8 14 15 14 15 10 7 7 7 7 6 7 6 8 9 10 13 15 16 18 20 21 21 21 20 20 19 18 18 17
1 1 1 3 8 6 6 7 13 2 6 1 3 8 11 12 11 12 10 7 7 7 6 6 4 3 4 6 9 12 14 14 16 17 19 20 21 21 21 20 19 19 17
2 1 3 4 6 6 7 3 5 7 3 4 4 3 7 9 12 8 9 7 8 8 9 7 2 1 2 3 5 7 10 14 17 17 17 17 19 21 21 21 20 19 18
3 2 3 5 5 5 7 7 4 5 8 5 3 3 2 6 10 9 8 9 11 9 9 7 3 3 6 6 5 6 6 8 10 13 19 21 19 18 19 20 20 20 19
3 5 3 3 4 4 5 5 5 5 5 2 4 5 3 4 2 7 10 9 11 9 10 7 4 4 7 8 7 7 7 9 10 12 14 17 20 18 16 17 19 19 19
5 5 8 8 6 6 4 4 3 5 3 4 7 7 5 8 6 5 6 4 11 10 13 9 6 2 5 9 9 7 6 8 10 12 14 14 17 18 16 15 17 18 18
3 7 7 10 8 8 6 5 4 5 3 1 4 7 7 6 8 10 6 9 9 9 10 9 5 1 3 7 10 7 4 7 7 7 9 10 14 16 16 16 15 15 17
3 5 7 11 10 8 6 5 6 4 2 1 2 6 4 2 4 5 4 6 10 10 10 6 6 2 1 6 9 8 5 5 4 4 6 8 10 14 14 16 16 15 15
4 3 5 6 7 8 8 8 6 6 3 4 3 4 4 3 8 8 5 6 10 9 6 6 4 1 2 5 8 8 7 5 4 2 4 7 9 10 12 14 16 16 15
5 6 7 6 6 6 6 7 4 4 1 3 1 1 2 4 5 4 5 6 8 7 6 6 2 0 1 4 6 7 8 7 4 0 1 4 7 9 10 11 12 13 15
8 9 8 7 6 7 7 6 7 5 5 3 1 2 2 3 4 6 7 9 7 5 7 5 3 5 4 3 4 7 8 8 6 1 2 2 3 6 8 8 11 15 15
13 11 8 8 6 6 9 6 6 5 5 4 1 2 1 2 3 3 4 9 8 7 7 9 6 5 5 4 3 5 7 8 7 3 2 3 5 4 5 8 9 12 13
15 12 10 9 6 6 7 11 7 5 5 5 5 4 0 1 2 4 5 6 8 8 7 10 8 7 4 5 4 4 4 5 5 5 2 2 4 5 4 6 7 9 11
12 10 10 10 8 7 6 11 8 7 6 4 6 6 6 4 1 2 4 5 4 7 9 10 8 8 7 5 4 4 1 3 3 3 3 2 1 2 4 6 7 8 9
15 14 13 13 14 11 9 10 10 6 4 6 6 6 5 8 6 3 3 5 3 6 10 8 9 9 8 6 5 3 2 2 2 1 2 1 2 3 5 5 6 7 8
19 18 17 15 15 16 13 13 11 9 7 8 8 6 6 6 5 5 6 6 7 2 5 9 10 10 11 10 8 6 5 4 3 3 2 2 2 3 5 6 7 8 9
22 22 20 18 18 16 17 16 13 11 11 9 9 9 7 7 7 8 8 7 8 5 5 6 10 10 11 10 8 5 7 7 6 5 5 5 5 5 5 6 7 8 10
24 22 19 16 18 18 19 18 13 12 9 10 10 11 11 10 7 5 5 6 8 7 6 6 8 11 13 10 6 4 7 7 10 8 7 7 7 7 8 8 9 9 10
25 23 22 21 18 19 19 18 17 15 13 10 12 10 12 12 10 9 7 7 9 9 9 8 10 13 13 13 10 6 5 9 6 8 9 8 9 8 8 9 10 12 12
28 26 24 22 18 20 21 18 18 18 16 12 13 15 14 12 12 11 10 10 11 11 11 10 11 13 15 14 12 13 10 11 13 12 9 7 7 8 8 9 10 10 12
29 29 26 24 20 23 24 23 22 19 18 15 14 16 15 14 12 12 13 12 12 12 11 13 15 17 18 17 17 13 12 12 13 18 13 10 8 6 8 10 9 9 8
27 28 28 27 24 21 22 23 22 22 19 18 17 16 16 15 16 15 16 15 13 13 12 13 15 16 16 15 15 16 16 17 16 16 15 14 11 10 10 10 11 10 9
30 29 28 28 26 23 22 23 22 22 22 20 18 15 14 14 14 15 14 13 13 13 12 12 12 13 14 14 15 17 17 16 16 15 17 16 14 12 10 7 7 6 5
23 38 31 27 28 26 24 24 23 24 23 23 21 20 18 17 16 15 14 13 12 12 12 13 14 13 13 13 14 14 13 14 17 19 20 15 11 8 9 7 8 8 9
22 33 36 29 28 27 26 24 24 23 22 23 22 22 21 19 16 15 14 12 11 10 11 11 11 11 10 10 10 12 14 15 18 20 21 17 12 12 9 5 3 3 4
28 32 34 33 32 30 25 26 24 24 24 24 24 23 21 20 16 16 14 12 11 10 10 9 8 8 9 9 9 10 9 10 13 12 12 13 9 6 4 5 6 7 8
Wind_Direction
137 43 74 40 355 12 27 18 1 275 262 281 228 195 188 203 228 234 249 246 225 223 226 237 254 271 269 253 243 244 245 243 243 244 242 241 241 240 240 238 236 236 236
157 1 85 77 33 13 5 3 40 3 279 39 164 182 178 183 204 222 229 240 217 202 199 229 259 286 268 255 252 248 246 245 243 246 247 244 241 239 238 236 235 234 236
156 254 94 69 37 24 26 41 23 71 316 135 139 149 209 197 198 213 222 237 215 201 192 196 195 48 1 286 270 258 247 241 241 241 242 240 236 236 236 233 232 232 233
197 228 74 78 24 6 33 31 19 60 56 78 93 158 218 222 211 226 230 223 210 211 205 199 167 74 24 359 311 279 252 247 250 245 244 240 234 235 233 231 229 228 229
221 246 283 334 345 4 28 22 33 22 14 227 229 246 238 247 238 252 246 245 221 221 216 202 152 67 33 7 341 298 270 258 257 253 246 242 235 232 227 228 225 226 227
210 258 249 264 301 320 315 352 333 348 340 243 225 226 233 229 220 212 222 227 208 217 211 202 174 128 20 7 354 323 284 278 269 261 247 246 232 225 223 222 219 223 224
190 230 237 257 276 297 283 300 314 312 307 56 195 251 240 228 222 221 227 182 169 184 199 197 192 207 16 6 1 344 305 304 280 264 249 234 228 220 219 216 216 222 224
244 270 264 251 258 271 255 276 283 283 217 17 202 202 194 247 203 178 165 152 182 188 198 201 193 183 296 349 357 354 353 328 302 266 246 230 223 218 216 218 223 225 221
239 260 238 251 274 257 261 246 261 251 237 73 155 194 183 177 164 177 164 163 193 202 200 159 149 165 240 330 346 359 8 6 349 282 257 236 220 221 222 226 228 223 217
254 225 228 274 309 244 265 249 222 243 174 132 65 354 40 157 181 181 156 158 185 193 173 147 180 123 221 296 344 4 14 18 5 312 246 241 209 214 216 223 222 214 210
247 235 240 263 314 249 258 220 221 246 220 174 38 353 47 122 162 165 175 194 193 155 185 176 214 234 248 270 353 9 15 21 18 58 167 149 191 191 195 203 205 200 203
242 238 245 257 281 242 226 215 210 229 199 204 237 19 56 136 204 189 191 203 199 216 214 217 237 233 253 281 328 359 6 20 26 47 139 157 157 181 190 181 180 192 201
231 244 244 248 256 253 237 223 229 234 220 235 238 212 272 43 221 247 218 194 216 218 224 233 247 246 239 271 284 332 356 10 23 43 65 144 158 164 175 182 186 188 194
229 246 245 240 246 249 241 200 229 241 225 257 228 233 242 249 266 192 193 201 212 222 224 241 228 231 237 258 288 298 306 353 2 32 74 102 136 165 178 182 185 195 201
243 243 245 239 241 252 240 211 224 225 249 260 244 260 248 228 215 203 205 196 229 223 223 243 237 225 221 230 277 268 249 302 317 340 3 75 154 172 190 198 202 202 205
248 248 251 250 244 245 234 230 232 239 267 268 266 259 245 218 221 229 232 249 249 252 247 243 235 226 233 227 239 225 235 243 262 252 245 238 222 211 202 198 205 210 215
248 248 248 261 238 231 233 236 238 246 271 273 254 247 236 219 220 230 231 233 239 240 269 248 233 235 215 216 229 257 243 251 249 242 245 248 245 240 237 234 227 222 220
249 248 245 241 241 240 231 233 235 243 260 271 241 242 220 220 223 235 251 253 232 249 261 250 239 212 213 210 208 273 293 272 256 245 247 246 244 243 242 241 242 238 234
242 244 242 241 246 232 231 235 238 250 247 253 233 224 212 227 233 247 254 254 260 259 263 246 241 221 211 218 223 223 289 263 277 271 253 253 249 249 254 258 256 252 249
239 240 241 240 240 239 233 234 241 246 242 252 236 230 235 243 245 251 256 264 266 256 247 237 234 224 230 226 228 241 266 259 253 254 252 265 269 259 259 257 253 250 250
243 241 239 238 241 237 239 241 244 246 242 249 238 234 239 247 248 255 265 271 263 250 248 237 234 230 230 229 229 248 254 261 248 252 237 245 242 258 271 264 254 246 240
245 248 242 239 238 242 249 245 242 246 246 240 236 243 240 254 259 263 267 264 253 247 244 241 234 238 239 240 242 252 253 246 234 242 227 235 240 244 243 242 243 239 234
239 235 236 244 243 241 246 243 244 243 239 234 235 242 245 248 259 266 261 251 247 243 238 237 234 232 237 245 248 254 255 250 253 255 237 229 234 238 238 209 211 219 188
261 237 242 237 243 244 245 245 244 242 240 232 237 243 251 256 267 261 252 247 240 235 233 234 239 243 242 241 243 248 256 250 246 249 239 228 230 234 230 213 189 176 173
239 215 236 239 243 238 241 242 240 240 238 234 232 235 248 260 258 248 244 240 237 232 226 222 227 232 235 240 240 238 241 245 241 238 232 226 230 224 212 205 169 138 136
242 226 228 226 239 234 237 241 240 239 240 237 233 237 244 254 248 243 240 231 232 233 227 225 230 246 251 245 240 240 242 244 249 234 242 227 240 224 213 201 178 175 153